Weather History for Alturas, CA

Change the Weather History Date:

Friday, June 1, 2012

  Actual Average Record
Temperature  
Mean Temperature 67 °F 56 °F  
Max Temperature 89 °F 73 °F 93 °F (1910)
Min Temperature 45 °F 39 °F 24 °F (1987)
Degree Days  
Heating Degree Days 0 9  
Month to date heating degree days 0 9  
Since 1 June heating degree days 0 9  
Since 1 July heating degree days 6466 6766  
Cooling Degree Days 2 0  
Month to date cooling degree days 2 0  
Year to date cooling degree days 3 0  
Since 1 June cooling degree days 2 0  
Growing Degree Days 17 (Base 50)    
Moisture  
Dew Point 44 °F    
Average Humidity 52    
Maximum Humidity 86    
Minimum Humidity 18    
Precipitation  
Precipitation 0.01 in 0.06 in 0.63 in (1971)
Month to date precipitation 0.01 0.06  
Year to date precipitation 5.42 7.60  
Sea Level Pressure  
Sea Level Pressure 29.88 in    
Wind  
Wind Speed 5 mph (West)    
Max Wind Speed 25 mph    
Max Gust Speed 37 mph    
Visibility 10 miles    
Events      
T = Trace of Precipitation, MM = Missing Value Source: NWS Daily Summary

Daily Weather History Graph

Daily Weather History Graph

Search for Another Location

Airport:

Trip Planner

Search our weather history database for the weather conditions in past years. The results will help you decide how hot, cold, wet, or windy it might be!

Date:

Astronomy

Jun. 01, 2012 Rise Set
Actual Time 5:30 AM PDT 8:30 PM PDT
Civil Twilight 4:57 AM PDT 9:03 PM PDT
Nautical Twilight 4:15 AM PDT 9:45 PM PDT
Astronomical Twilight 3:25 AM PDT 10:35 PM PDT
Moon 5:37 PM PDT (6/1) 3:11 AM PDT (6/1)
Length of Visible Light 16h 06m
Length of Day
14h 59m
Waxing Gibbous, 89% of the Moon is Illuminated
Jun 1
Waxing Gibbous
Jun 4
Full
Jun 11
Last Quarter
Jun 19
New
Jun 26
First Quarter

Hourly Weather History & Observations

Time (PDT) Temp. Dew Point Humidity Pressure Visibility Wind Dir Wind Speed Gust Speed Precip Events Conditions
12:55 AM 55.9 °F 44.1 °F 64% 29.97 in 10.0 mi SSE 3.5 mph - N/A   Clear
1:55 AM 53.1 °F 44.1 °F 71% 29.97 in 10.0 mi Calm Calm - N/A   Clear
2:55 AM 54.0 °F 45.0 °F 72% 29.96 in 10.0 mi Calm Calm - N/A   Clear
3:55 AM 51.1 °F 44.1 °F 77% 29.96 in 10.0 mi Calm Calm - N/A   Clear
4:55 AM 50.0 °F 44.1 °F 80% 29.96 in 10.0 mi Calm Calm - N/A   Clear
5:55 AM 46.9 °F 42.1 °F 83% 29.98 in 10.0 mi Calm Calm - N/A   Clear
6:55 AM 53.1 °F 45.0 °F 74% 29.98 in 10.0 mi Calm Calm - N/A   Clear
7:55 AM 61.0 °F 46.9 °F 60% 29.96 in 10.0 mi Calm Calm - N/A   Clear
8:55 AM 64.9 °F 46.9 °F 52% 29.97 in 10.0 mi Calm Calm - N/A   Clear
9:55 AM 71.1 °F 46.0 °F 41% 29.94 in 10.0 mi Variable 3.5 mph - N/A   Clear
10:55 AM 78.1 °F 46.9 °F 33% 29.91 in 10.0 mi NNE 3.5 mph - N/A   Clear
11:55 AM 81.0 °F 45.0 °F 28% 29.88 in 10.0 mi Calm Calm - N/A   Clear
12:55 PM 82.0 °F 43.0 °F 25% 29.88 in 10.0 mi Variable 3.5 mph - N/A   Clear
1:55 PM 87.1 °F 42.1 °F 21% 29.84 in 10.0 mi West 9.2 mph - N/A   Clear
2:55 PM 88.0 °F 41.0 °F 19% 29.81 in 10.0 mi Variable 5.8 mph - N/A   Clear
3:55 PM 87.1 °F 39.9 °F 19% 29.79 in 10.0 mi West 9.2 mph - N/A   Clear
4:55 PM 87.1 °F 39.9 °F 19% 29.76 in 10.0 mi Variable 5.8 mph - N/A   Clear
5:55 PM 84.0 °F 41.0 °F 22% 29.77 in 10.0 mi West 15.0 mph - N/A   Partly Cloudy
6:55 PM 79.0 °F 37.9 °F 23% 29.79 in 10.0 mi West 19.6 mph 28.8 mph 0.01 in   Mostly Cloudy
7:55 PM 73.9 °F 46.0 °F 37% 29.77 in 10.0 mi North 9.2 mph - N/A   Clear
8:55 PM 64.9 °F 48.9 °F 56% 29.80 in 10.0 mi ENE 9.2 mph - N/A   Clear
9:55 PM 63.0 °F 48.9 °F 60% 29.81 in 10.0 mi SSE 8.1 mph - N/A   Clear
10:55 PM 63.0 °F 42.1 °F 46% 29.81 in 10.0 mi West 5.8 mph - N/A   Clear
11:55 PM 60.1 °F 44.1 °F 55% 29.81 in 10.0 mi West 6.9 mph - N/A   Clear